Peoria, IL

3:15 PM CDT on July 23, 2017 (GMT -0500)
Greater Peoria Regional

Weather History for KPIA - August, 2013

Change the Weather History Date:

Friday, August 30, 2013

  Actual Average Record
Temperature  
Mean Temperature 86 °F 72 °F  
Max Temperature 99 °F 82 °F 99 °F (2013)
Min Temperature 72 °F 62 °F 44 °F (1915)
Degree Days  
Heating Degree Days 0 0  
Month to date heating degree days 1 0  
Since 1 June heating degree days 23 19  
Since 1 July heating degree days 5 1  
Cooling Degree Days 21 7  
Month to date cooling degree days 294 270  
Year to date cooling degree days 924 901  
Since 1 June cooling degree days 817 820  
Growing Degree Days 36 (Base 50)    
Moisture  
Dew Point 70 °F    
Average Humidity 61    
Maximum Humidity 87    
Minimum Humidity 35    
Precipitation  
Precipitation 0.00 in 0.11 in 2.62 in (1965)
Month to date precipitation 0.33 3.13  
Year to date precipitation 31.83 24.84  
Snow  
Snow 0.00 in 0.00 in 0.00 in ()
Month to date snowfall 0.0 0.0  
Since 1 June snowfall 0.0 0.0  
Since 1 July snowfall 0.0 0.0  
Snow Depth 0.00 in    
Sea Level Pressure  
Sea Level Pressure 29.88 in    
Wind  
Wind Speed 7 mph (SSW)    
Max Wind Speed 23 mph    
Max Gust Speed 29 mph    
Visibility 9 miles    
Events      
T = Trace of Precipitation, MM = Missing Value Source: NWS Daily Summary

Daily Weather History Graph

Daily Weather History Graph

Search for Another Location

Airport or City:

Trip Planner

Search our weather history database for the weather conditions in past years. The results will help you decide how hot, cold, wet, or windy it might be!

Date:

Astronomy

Aug. 30, 2013 Rise Set
Actual Time 6:24 AM CDT 7:33 PM CDT
Civil Twilight 5:55 AM CDT 8:01 PM CDT
Nautical Twilight 5:22 AM CDT 8:35 PM CDT
Astronomical Twilight 4:46 AM CDT 9:10 PM CDT
Moon 1:01 AM CDT (8/30) 3:50 PM CDT (8/30)
Length of Visible Light 14h 05m
Length of Day
13h 09m
Waning Crescent, 29% of the Moon is Illuminated
Aug 30
Waning Crescent
Sep 5
New
Sep 12
First Quarter
Sep 19
Full
Sep 26
Last Quarter

Hourly Weather History & Observations

Time (CDT) Temp. Heat Index Dew Point Humidity Pressure Visibility Wind Dir Wind Speed Gust Speed Precip Events Conditions
12:54 AM 75.9 °F - 69.1 °F 79% 29.97 in 10.0 mi ESE 3.5 mph - N/A   Clear
1:54 AM 75.0 °F - 69.1 °F 82% 29.96 in 10.0 mi Calm Calm - N/A   Clear
2:54 AM 73.9 °F - 69.1 °F 85% 29.96 in 10.0 mi Calm Calm - N/A   Clear
3:54 AM 73.0 °F - 68.0 °F 84% 29.95 in 10.0 mi South 3.5 mph - N/A   Clear
4:54 AM 73.0 °F - 68.0 °F 84% 29.94 in 7.0 mi South 4.6 mph - N/A   Clear
5:54 AM 73.0 °F - 68.0 °F 84% 29.94 in 6.0 mi South 3.5 mph - N/A   Haze
6:54 AM 73.0 °F - 69.1 °F 87% 29.93 in 5.0 mi South 5.8 mph - N/A   Partly Cloudy
7:54 AM 75.9 °F - 70.0 °F 82% 29.93 in 7.0 mi South 6.9 mph - N/A   Clear
8:54 AM 80.1 °F 83.8 °F 72.0 °F 76% 29.92 in 7.0 mi SSW 9.2 mph - N/A   Clear
9:54 AM 82.9 °F 88.0 °F 72.0 °F 69% 29.91 in 10.0 mi SSW 6.9 mph - N/A   Scattered Clouds
10:54 AM 88.0 °F 95.6 °F 73.0 °F 61% 29.89 in 10.0 mi SW 5.8 mph - N/A   Clear
11:54 AM 91.9 °F 101.3 °F 73.9 °F 55% 29.88 in 10.0 mi WSW 6.9 mph - N/A   Clear
12:54 PM 95.0 °F 103.2 °F 72.0 °F 47% 29.86 in 10.0 mi SW 10.4 mph - N/A   Clear
1:54 PM 97.0 °F 105.5 °F 72.0 °F 44% 29.85 in 10.0 mi SW 8.1 mph - N/A   Clear
2:54 PM 97.0 °F 105.5 °F 72.0 °F 44% 29.83 in 10.0 mi WSW 10.4 mph - N/A   Scattered Clouds
3:54 PM 97.0 °F 101.0 °F 66.9 °F 37% 29.82 in 10.0 mi Variable 4.6 mph - N/A   Partly Cloudy
4:54 PM 98.1 °F 101.8 °F 66.0 °F 35% 29.80 in 10.0 mi WNW 9.2 mph - N/A   Clear
5:54 PM 96.1 °F 102.9 °F 70.0 °F 43% 29.78 in 10.0 mi SW 10.4 mph - N/A   Clear
6:54 PM 91.9 °F 99.5 °F 72.0 °F 52% 29.79 in 10.0 mi SW 6.9 mph - N/A   Clear
7:54 PM 89.1 °F 96.0 °F 72.0 °F 57% 29.80 in 10.0 mi SW 5.8 mph - N/A   Clear
8:54 PM 86.0 °F 93.0 °F 73.0 °F 65% 29.80 in 10.0 mi South 5.8 mph - N/A   Clear
8:59 PM 86.0 °F 93.0 °F 73.0 °F 65% 29.82 in 10.0 mi South 4.6 mph - N/A   Clear
9:54 PM 82.9 °F 88.8 °F 73.0 °F 72% 29.82 in 10.0 mi ENE 8.1 mph - N/A   Clear
10:54 PM 79.0 °F - 62.1 °F 56% 29.84 in 10.0 mi East 15.0 mph - N/A   Clear
11:54 PM 78.1 °F - 61.0 °F 56% 29.82 in 10.0 mi East 8.1 mph - N/A   Clear